STARLINK-1882, 46784

Orbit data source: Space-Track

STARLINK-1882, 46784 is a payload satellite owned by SpaceX/Seattle (US) in LEO that was launched on Sat, 24 Oct 2020 UTC via an FALCON 9 launch vehicle from the Air Force Eastern Test Range (AFETR). Payload-class satellites include a variety of spacecraft equipped with specific instruments for various scientific and technological missions. These include communications satellites like Starlink; space stations such as the ISS; scientific satellites like the Hubble; Earth observation satellites from companies like Planet Labs, Umbra, and HawkEye 360; GPS; miniature CubeSats for education and research; and military/defense satellites.

Loading next visibility...
Identifier
46784, 2020-074AX
Orbit
LEO
Country
Flag of USUS
Related business
Manufacturer
SpaceX/Seattle
Mission
Partially operational Commercial Communications
Bus & Motor
STARLINK, Unknown motor
Mass
260 kg wet, ~248 kg dry
Launch date (UTC)
2020-10-24 (6 years ago)
Launch vehicle
FALCON 9
Launch site
Air Force Eastern Test Range (AFETR)
Object type
Payload
Rocket body
Debris
Shape & HBR
Box + 1 Pan, 10.1 m
Radar Cross Section
13.562 m², Large (>1 m²)

Expand to show TLE details & history
Last TLE update: 2 days ago

TLE from 2 days ago
0 STARLINK-1882
1 46784U 20074AX  26171.50003471  .00360001  63526-4  83136-3 0  9999
2 46784  53.0380 122.7812 0003797 157.4506 216.9850 15.96696365  5997
Epoch: 2026-06-20T12:00Z
TLE epoch observation values (Epoch: 2026-06-20T12:00:02.998Z)
Latitude
11.46052°
Longitude
42.78018°
Altitude
285.757 km
Speed
7.737 km/s
True Right ascension
08h 46m 01s
True Declination
11° 23' 20"
Sunlit
Object was in daylight at epoch
Visualization orbit readout
Latitude
Unknown
Longitude
Unknown
Altitude
Unknown
Speed
Unknown
Apparent Right ascension
Unknown
Apparent Declination
Unknown
Sunlit
N/A
Visualization observer readout
Local Sidereal Time
21:39:19
Azimuth
Unknown
Elevation
Unknown
Doppler factor
Unknown
Orbital elements
Apogee altitude
286.405 km
Perigee altitude
281.346 km
Semi-major axis
6,662.013 km
Eccentricity
0.00038
Inclination
53.038°
RAAN
122.7812°
Arg. of periapsis
157.4506°
True anomaly
216.95883°
Mean anomaly
216.985°
Eccentric anomaly
216.97192°
Mean motion
3.99149 °/min
Orbital period
90.19 mins
BSTAR
0.00083136
Loading maneuver chart data...
Computing Atmospheric mass density...

Documentation

Showing up to 5 results
|